Simultaneous Nadir Overpasses (SNOs) Predictions

Prediction of SNOs between AQUA and METOP-B Satellite Orbit:

Table of predicted SNOs for the next 14.0 days since TLE Epoch: 1/24/2025
Index Date (AQUA) Time (AQUA) Lat,Lon (AQUA) SZA (AQUA ) Date (METOP-B) Time (METOP-B) Lat,Lon (METOP-B) SZA (METOP-B ) Distance(km) Time Diff (sec)
1 01/25/2025 20:48:15 -76.86, 46.38 84.44 01/25/2025 20:48:00 -76.86, 46.45 84.44 1.71 15
2 01/25/2025 21:37:36 76.90,-146.10 95.60 01/25/2025 21:38:39 76.90,-146.05 95.59 1.30 63
3 01/28/2025 09:37:51 -76.84,-145.86 85.12 01/28/2025 09:37:08 -76.85,-145.91 85.11 1.86 43
4 01/28/2025 10:27:12 76.88, 21.63 94.92 01/28/2025 10:27:47 76.88, 21.57 94.93 1.61 35
5 01/30/2025 22:27:26 -76.85, 21.74 85.79 01/30/2025 22:26:15 -76.86, 21.85 85.78 2.92 71
6 01/30/2025 23:16:47 76.91,-170.79 94.26 01/30/2025 23:16:54 76.90,-170.68 94.25 2.91 7
7 02/02/2025 12:06:18 76.88, -3.02 93.51 02/02/2025 12:06:00 76.90, -2.98 93.53 2.48 18
8 02/02/2025 12:55:38 -76.95, 164.38 86.43 02/02/2025 12:56:41 -76.95, 164.55 86.44 4.15 63
9 02/05/2025 00:55:49 76.91, 164.58 92.78 02/05/2025 00:55:07 76.89, 164.68 92.77 2.87 42
10 02/05/2025 01:45:08 -76.93, -27.83 87.22 02/05/2025 01:45:48 -76.94, -27.80 87.20 2.14 40
11 02/07/2025 13:45:17 76.88, -27.63 91.96 02/07/2025 13:44:14 76.87, -27.72 91.96 2.50 63
12 02/07/2025 14:34:37 -76.94, 139.80 87.98 02/07/2025 14:34:55 -76.92, 139.81 88.00 2.37 18



Historial Predications of SNOs between AQUA and METOP-B
